This is the latest recevied weather packets stored in our database for station/object W0WC. If no packets are shown the sender has not sent any weather packets the latest 10 day(s).
| Time | Temp. | Humidity | Pressure | Rain* | Wind** | Luminosity | Snow |
|---|---|---|---|---|---|---|---|
| 1778155426 | 6.67° C | 81% | 1019.3 hPa | 0 mm | - | 27 W/m² | - |
| 1778155122 | 6.67° C | 83% | 1019.2 hPa | 0 mm | - | 24 W/m² | - |
| 1778154818 | 6.11° C | 84% | 1019.3 hPa | 0 mm | - | 22 W/m² | - |
| 1778154514 | 6.11° C | 85% | 1019.3 hPa | 0 mm | - | 19 W/m² | - |
| 1778154211 | 6.11° C | 84% | 1019.1 hPa | 0 mm | - | 16 W/m² | - |
| 1778153909 | 6.11° C | 84% | 1019.2 hPa | 0 mm | - | 13 W/m² | - |
| 1778153605 | 6.11° C | 83% | 1019.3 hPa | 0 mm | - | 10 W/m² | - |
| 1778153303 | 6.11° C | 82% | 1019 hPa | 0 mm | - | 7 W/m² | - |
| 1778153000 | 6.67° C | 81% | 1019.1 hPa | 0 mm | - | 5 W/m² | - |
| 1778152698 | 6.67° C | 80% | 1018.9 hPa | 0 mm | - | 3 W/m² | - |
| 1778152394 | 6.67° C | 79% | 1019 hPa | 0 mm | - | 2 W/m² | - |
| 1778152090 | 7.22° C | 80% | 1019.1 hPa | 0 mm | - | 1 W/m² | - |
| 1778151787 | 7.22° C | 78% | 1019.1 hPa | 0 mm | - | 0 W/m² | - |
| 1778151484 | 7.78° C | 77% | 1019.1 hPa | 0 mm | - | 0 W/m² | - |
| 1778151180 | 7.78° C | 76% | 1018.9 hPa | 0 mm | - | 0 W/m² | - |
| 1778150877 | 7.78° C | 75% | 1018.9 hPa | 0 mm | - | 0 W/m² | - |
| 1778150574 | 8.33° C | 74% | 1018.8 hPa | 0 mm | - | 0 W/m² | - |
| 1778150270 | 8.33° C | 74% | 1018.9 hPa | 0 mm | - | 0 W/m² | - |
| 1778149966 | 8.33° C | 75% | 1018.7 hPa | 0 mm | - | 0 W/m² | - |
| 1778149663 | 8.33° C | 75% | 1018.8 hPa | 0 mm | - | 0 W/m² | - |
| 1778149359 | 7.78° C | 76% | 1018.7 hPa | 0 mm | - | 0 W/m² | - |
| 1778149056 | 7.78° C | 77% | 1018.8 hPa | 0 mm | - | 0 W/m² | - |
| 1778148751 | 7.78° C | 78% | 1018.7 hPa | 0 mm | - | 0 W/m² | - |
| 1778148448 | 7.78° C | 84% | 1018.8 hPa | 0 mm | - | 0 W/m² | - |
| 1778148147 | 7.22° C | 88% | 1018.9 hPa | 0 mm | - | 0 W/m² | - |
* Rain latest hour (hover to see other rain measurements)
** Current wind speed in m/s (hover to see current wind gust speed)